Victoria, British Columbia

11:05 PM PST on December 09, 2016 (GMT -0800)
Victoria

Weather History for 71799 - October, 2012

Change the Weather History Date:

Tuesday, October 9, 2012

  Actual Average Record
Temperature  
Mean Temperature 48 °F -  
Max Temperature 57 °F 55 °F - ()
Min Temperature 39 °F 40 °F - ()
Degree Days  
Heating Degree Days 17    
Moisture  
Dew Point 45 °F    
Average Humidity 85    
Maximum Humidity 100    
Minimum Humidity 67    
Precipitation  
Precipitation 0.00 in 0.12 in - ()
Sea Level Pressure  
Sea Level Pressure 30.07 in    
Wind  
Wind Speed 2 mph ()    
Max Wind Speed 14 mph    
Max Gust Speed 20 mph    
Visibility 7.7 miles    
Events Fog    
T = Trace of Precipitation, MM = Missing Value Source: Averaged Metar Reports

Daily Weather History Graph

Daily Weather History Graph

Search for Another Location

Airport or City:

Trip Planner

Search our weather history database for the weather conditions in past years. The results will help you decide how hot, cold, wet, or windy it might be!

Date:

Astronomy

Oct. 09, 2012 Rise Set
Actual Time 7:25 AM PDT 6:34 PM PDT
Civil Twilight 6:54 AM PDT 7:06 PM PDT
Nautical Twilight 6:17 AM PDT 7:42 PM PDT
Astronomical Twilight 5:41 AM PDT 8:19 PM PDT
Moon 12:39 AM PDT (10/9) 3:31 PM PDT (10/9)
Length of Visible Light 12h 12m
Length of Day
11h 09m
Waning Crescent, 35% of the Moon is Illuminated
Oct 9
Waning Crescent
Oct 15
New
Oct 21
First Quarter
Oct 29
Full
Nov 6
Last Quarter

Hourly Weather History & Observations

Time (PDT) Temp. Dew Point Humidity Pressure Visibility Wind Dir Wind Speed Gust Speed Precip Events Conditions
12:00 AM 44.6 °F 41.0 °F 87% 30.01 in 30.0 mi Calm Calm - N/A   Partly Cloudy
1:00 AM 44.6 °F 41.0 °F 87% 30.03 in 30.0 mi Calm Calm - N/A   Partly Cloudy
2:00 AM 44.6 °F 42.8 °F 93% 30.05 in 30.0 mi Calm Calm - N/A   Partly Cloudy
3:00 AM 42.8 °F 41.0 °F 93% 30.05 in 15.0 mi Calm Calm - N/A   Partly Cloudy
4:00 AM 42.8 °F 41.0 °F 93% 30.06 in 15.0 mi Calm Calm - N/A Fog Patches of Fog
5:00 AM 43 °F 40 °F 85% 30.07 in 3 mi Calm Calm - -   Mist
5:00 AM 42.8 °F 41.0 °F 93% 30.07 in 3.0 mi Calm Calm - N/A   Partly Cloudy
5:08 AM 41.0 °F - N/A% - 1.0 mi Calm Calm - N/A   Clear
5:47 AM 42.8 °F - N/A% - 3.0 mi Calm Calm - N/A   Partly Cloudy
6:00 AM 41.0 °F 41.0 °F 100% 30.08 in 3.0 mi Calm Calm - N/A   Partly Cloudy
7:00 AM 42.8 °F 41.0 °F 93% 30.09 in 3.0 mi Calm Calm - N/A   Mostly Cloudy
7:36 AM 42.8 °F - N/A% - 3.0 mi Calm Calm - N/A   Mostly Cloudy
8:00 AM 44.6 °F 42.8 °F 93% 30.10 in 3.0 mi Calm Calm - N/A   Overcast
8:42 AM 48.2 °F - N/A% - 5.0 mi Calm Calm - N/A   Mostly Cloudy
9:00 AM 50.0 °F 48.2 °F 94% 30.11 in 5.0 mi Calm Calm - N/A   Mostly Cloudy
9:07 AM 50.0 °F - N/A% - 5.0 mi Calm Calm - N/A   Scattered Clouds
10:00 AM 53.6 °F 48.2 °F 82% 30.12 in 12.0 mi Calm Calm - N/A   Scattered Clouds
11:00 AM 54 °F 48 °F 74% 30.13 in 15 mi ESE 4.6 mph - -   Scattered Clouds
11:00 AM 53.6 °F 48.2 °F 82% 30.13 in 15.0 mi SE 4.6 mph - N/A   Partly Cloudy
12:00 PM 55.4 °F 48.2 °F 77% 30.12 in 15.0 mi East 10.4 mph - N/A   Partly Cloudy
1:00 PM 57.2 °F 48.2 °F 72% 30.12 in 15.0 mi ESE 12.7 mph - N/A   Partly Cloudy
2:00 PM 57.2 °F 48.2 °F 72% 30.09 in 30.0 mi SE 12.7 mph - N/A   Partly Cloudy
3:00 PM 57.2 °F 48.2 °F 72% 30.08 in 30.0 mi SE 13.8 mph 19.6 mph N/A   Partly Cloudy
4:00 PM 57.2 °F 48.2 °F 72% 30.07 in 30.0 mi SE 10.4 mph - N/A   Clear
5:00 PM 56 °F 48 °F 67% 30.06 in 28 mi SE 11.5 mph - -  
5:00 PM 55.4 °F 48.2 °F 77% 30.06 in 30.0 mi SE 11.5 mph - N/A   Clear
6:00 PM 53.6 °F 48.2 °F 82% 30.04 in 30.0 mi SE 8.1 mph - N/A   Clear
7:00 PM 51.8 °F 48.2 °F 88% 30.04 in 30.0 mi SE 8.1 mph - N/A   Clear
8:00 PM 50.0 °F 48.2 °F 94% 30.04 in 20.0 mi Calm Calm - N/A   Clear
9:00 PM 46.4 °F 44.6 °F 93% 30.04 in 15.0 mi Calm Calm - N/A   Clear
10:00 PM 46.4 °F 42.8 °F 87% 30.05 in 12.0 mi Calm Calm - N/A Fog Shallow Fog
10:35 PM 44.6 °F - N/A% - 6.0 mi Calm Calm - N/A   Partly Cloudy
11:00 PM 44 °F 43 °F 95% 30.05 in 3 mi Calm Calm - -   Mist
11:00 PM 44.6 °F 42.8 °F 93% 30.05 in 3.0 mi Calm Calm - N/A   Partly Cloudy
11:16 PM 44.6 °F - N/A% - 1.0 mi Calm Calm - N/A   Partly Cloudy
11:29 PM 42.8 °F - N/A% - 2.0 mi Calm Calm - N/A   Partly Cloudy